Probability
0 0 0 0 0 0 0 0 0 0 0 0 0 0 0 0 0 0 0 0 0 0 0 0 0 0 0 0 0 1 1 1 1 1 0 0 0 0 0 0 0 0 0 0
0 0 0 0 0 0 0 0 0 0 0 0 0 0 0 0 0 0 0 0 0 0 0 0 0 0 0 0 0 0 0 1 1 2 1 1 0 0 0 0 0 0 0 0
0 0 0 0 0 0 0 0 0 0 0 0 0 0 0 0 0 0 0 0 0 0 0 0 0 0 0 0 0 0 0 0 1 2 2 1 0 0 0 0 0 0 0 0
0 0 0 0 0 0 0 0 0 0 0 0 0 0 0 0 0 0 0 0 0 0 0 0 0 0 0 0 0 0 0 0 0 1 2 1 0 0 0 0 0 0 0 0
0 0 0 0 0 0 0 0 0 0 0 0 0 0 0 0 0 0 0 0 0 0 0 0 0 0 0 0 0 0 0 0 0 0 1 1 0 0 0 0 0 0 0 0
0 0 0 0 0 0 0 0 0 0 0 0 0 0 0 0 0 0 0 0 0 0 0 0 0 0 0 0 0 0 0 0 0 0 0 1 1 0 0 0 0 0 0 0
0 0 0 0 0 0 0 0 0 0 0 0 0 0 0 0 0 0 0 0 0 0 0 0 0 0 0 0 0 0 0 0 0 0 0 1 1 0 0 0 0 0 0 0
0 0 0 0 0 0 0 0 0 0 0 0 0 0 0 0 0 0 0 0 0 0 0 0 0 0 0 0 0 0 0 0 0 0 0 0 0 0 0 0 0 0 0 0
0 0 0 0 0 0 0 0 0 0 0 0 0 0 0 0 0 0 0 0 0 0 0 0 0 0 0 0 0 0 0 0 0 0 0 0 0 0 0 0 0 0 0 0
0 0 0 0 0 0 0 0 0 0 0 0 0 0 0 0 0 0 0 0 0 0 0 0 0 0 0 0 0 0 0 0 0 0 0 0 0 0 0 0 0 0 0 0
0 0 0 0 0 0 0 0 0 0 0 0 0 0 0 0 0 0 0 0 0 0 0 0 0 0 0 0 0 0 0 0 0 0 0 0 0 0 0 0 0 0 0 0
0 0 0 0 0 0 0 0 0 0 0 0 0 0 0 0 0 0 0 0 0 0 0 0 0 0 0 0 0 0 0 0 0 0 0 0 0 0 0 0 0 0 0 0
0 0 0 0 0 0 0 0 0 0 0 0 0 0 0 0 0 0 0 0 0 0 0 0 0 0 0 0 0 0 0 0 0 0 0 0 0 0 0 0 0 0 0 0
0 0 0 0 0 0 0 0 0 0 0 0 0 0 0 0 0 0 0 0 0 0 0 0 0 0 0 0 0 0 0 0 0 0 0 0 0 0 0 0 0 0 0 0
0 0 0 0 0 0 0 0 0 0 0 0 0 0 0 0 0 0 0 0 0 0 0 0 0 0 0 0 0 0 0 0 0 0 0 0 0 0 0 0 0 0 0 0
0 0 0 0 0 0 0 0 0 0 0 0 0 0 0 0 0 0 0 0 0 0 0 0 0 0 0 0 0 0 0 0 0 0 0 0 0 0 0 0 0 0 0 0
0 0 0 0 0 0 0 0 0 0 0 0 0 0 0 0 0 0 0 0 0 0 0 0 0 0 0 0 0 0 0 0 0 0 0 0 0 0 0 0 0 0 0 0
0 0 0 0 0 0 0 0 0 0 0 0 0 0 0 0 0 0 0 0 0 0 0 0 0 0 0 0 0 0 0 0 0 0 0 0 0 0 0 0 0 0 0 0
0 0 0 0 0 0 0 0 0 0 0 0 0 0 0 0 0 0 0 0 0 0 0 0 0 0 0 0 0 0 0 0 0 0 0 0 0 0 0 0 0 0 0 0
0 0 0 0 0 0 0 0 0 0 0 0 0 0 0 0 0 0 0 0 0 0 0 0 0 0 0 0 0 0 0 0 0 0 0 0 0 0 0 0 0 0 0 0
0 0 0 0 0 0 0 0 0 0 0 0 0 0 0 0 0 0 0 0 0 0 0 0 0 0 0 0 0 0 0 0 0 0 0 0 0 0 0 0 0 0 0 0
0 0 0 0 0 0 0 0 0 0 0 0 0 0 0 0 0 0 0 0 0 0 0 0 0 0 0 0 0 0 0 0 0 0 0 0 0 0 0 0 0 0 0 0
0 0 0 0 0 0 0 0 0 0 0 0 0 0 0 0 0 0 0 0 0 0 0 0 0 0 0 0 0 0 0 0 0 0 0 0 0 0 0 0 0 0 0 0
0 0 0 0 0 0 0 0 0 0 0 0 0 0 0 0 0 0 0 0 0 0 0 0 0 0 0 0 0 0 0 0 0 0 0 0 0 0 0 0 0 0 0 0
0 0 0 0 0 0 0 0 0 0 0 0 0 0 0 0 0 0 0 0 0 0 0 0 0 0 0 0 0 0 0 0 0 0 0 0 0 0 0 0 0 0 0 0
0 0 0 0 0 0 0 0 0 0 0 0 0 0 0 0 0 0 0 0 0 0 0 0 0 0 0 0 0 0 0 0 0 0 0 0 0 0 0 0 0 0 0 0
Wind_Speed
1 3 5 8 8 4 3 3 5 5 2 2 7 11 12 7 6 8 8 8 8 8 6 4 4 4 3 3 4 5 5 4 4 3 3 3 3 2 2 2 2 3 3 3
2 5 6 3 4 3 3 4 5 4 1 2 6 12 10 8 8 9 9 9 8 6 4 3 3 4 4 4 5 5 6 5 5 4 3 3 3 2 2 2 2 2 3 3
7 3 2 4 3 4 5 6 5 4 3 2 4 10 6 5 4 5 7 7 7 6 6 5 4 4 5 5 6 5 5 6 5 5 3 2 2 1 1 1 2 2 3 3
4 3 2 3 5 6 6 4 4 3 2 4 0 7 8 4 6 6 7 6 6 5 5 5 4 4 5 5 5 4 5 5 5 5 5 5 4 4 4 2 2 2 2 3
4 2 3 5 5 6 4 2 2 2 2 4 2 4 11 2 6 8 7 6 5 4 4 5 5 5 4 3 4 4 4 4 5 5 6 6 4 3 2 2 2 2 2 2
2 1 2 3 1 4 4 3 3 2 1 5 6 6 10 4 7 7 4 4 3 2 2 2 2 2 1 1 2 3 3 3 4 5 6 6 6 5 4 3 3 2 2 2
2 2 1 2 3 1 3 4 2 2 2 7 3 5 11 7 5 5 5 4 3 2 2 2 2 2 2 2 3 3 4 3 4 4 5 6 6 6 6 5 4 3 2 2
4 5 4 3 5 6 5 6 6 6 5 5 2 8 9 5 4 3 3 2 1 1 1 2 2 2 2 2 2 3 4 4 4 4 5 4 5 4 4 4 4 4 3 3
6 5 0 2 1 6 5 5 3 3 0 3 6 7 8 3 3 2 1 1 1 2 1 1 1 1 2 2 3 3 4 3 3 4 4 4 4 4 4 4 3 3 3 2
5 3 2 1 1 1 3 5 4 4 4 5 6 5 6 4 4 2 1 2 2 2 2 2 1 2 2 2 2 2 3 3 3 3 4 3 4 4 4 3 3 3 3 3
4 4 1 1 6 7 4 4 4 4 4 5 5 7 5 5 3 3 3 2 2 2 2 2 2 2 1 0 0 1 1 2 2 3 3 3 3 3 3 3 3 3 3 3
4 4 3 5 3 2 5 6 7 6 6 5 4 8 3 2 2 2 2 2 2 2 2 2 2 1 1 1 0 0 1 1 2 2 3 3 3 3 3 3 3 3 3 3
6 5 1 2 2 2 4 5 6 4 3 5 6 9 2 1 1 1 2 3 2 2 2 2 2 1 1 1 1 1 1 1 1 1 2 3 3 3 4 4 3 3 3 3
4 4 7 10 6 6 6 6 7 7 6 7 11 11 8 6 5 5 4 3 2 2 2 2 2 2 2 1 1 1 1 1 1 1 2 3 3 4 4 3 3 3 3 3
4 5 5 5 4 3 6 8 10 12 11 10 10 11 13 7 6 5 4 3 3 3 3 3 3 3 2 2 1 1 1 1 0 1 2 3 3 2 2 2 2 2 3 3
3 4 3 4 4 4 7 9 10 11 10 11 11 16 10 5 4 4 5 4 5 5 5 4 4 3 3 2 2 2 2 1 1 1 2 1 1 2 2 2 2 2 2 3
4 5 3 4 2 2 10 12 13 9 9 9 14 14 6 5 5 5 5 5 6 6 5 4 4 3 3 3 2 2 2 1 1 1 1 1 1 1 1 2 2 2 2 2
7 4 3 2 1 11 8 3 8 9 9 9 8 7 6 6 5 4 4 4 5 5 4 4 3 3 2 1 1 1 1 1 1 1 1 1 1 1 1 1 2 2 2 2
6 7 4 3 5 10 7 3 4 6 8 6 9 8 6 3 2 4 2 2 3 4 3 3 2 2 1 1 1 1 1 1 1 1 1 1 1 1 1 1 2 2 2 2
3 5 5 4 5 10 6 2 3 2 7 4 6 6 4 1 2 5 2 2 3 2 1 1 1 1 0 0 1 1 1 1 1 2 2 1 1 2 2 2 2 1 2 2
5 4 6 6 7 10 5 2 4 5 7 2 3 4 4 4 5 3 2 2 2 2 2 1 1 0 1 0 1 0 1 2 2 1 1 1 1 2 2 2 1 1 1 1
9 8 8 6 7 11 3 5 7 5 2 1 2 3 3 3 2 2 2 2 2 2 2 1 1 1 1 0 0 1 2 2 1 1 1 1 1 1 1 1 1 1 1 2
7 9 7 9 9 3 4 5 4 1 2 3 2 2 2 2 2 2 1 2 1 1 1 1 1 2 2 1 0 2 2 1 1 1 2 2 1 1 1 1 2 1 2 2
4 2 4 4 6 4 3 3 2 2 3 3 2 2 2 2 2 2 2 1 1 1 1 1 1 2 3 2 1 1 1 1 1 1 1 1 1 1 1 1 2 2 2 2
6 5 4 5 5 3 4 5 4 3 2 1 2 2 2 3 3 2 2 2 1 1 1 1 1 2 3 2 1 1 1 1 1 1 1 1 1 1 1 2 2 2 2 3
6 8 8 9 7 6 5 4 3 3 3 3 2 2 1 2 3 2 2 2 1 1 1 1 2 3 3 2 2 1 1 1 1 1 1 1 1 1 1 2 3 3 3 3
Wind_Direction
96 118 201 207 202 208 191 206 244 258 280 251 254 267 273 265 249 253 255 253 250 248 247 225 203 188 174 172 173 177 175 176 166 166 171 173 180 176 166 161 160 161 158 155
77 236 227 192 188 202 209 239 256 282 296 241 276 275 268 248 239 239 244 249 248 250 252 231 195 180 182 184 184 183 186 185 185 184 178 174 168 170 175 162 161 165 162 162
192 228 179 163 175 196 219 218 229 253 318 305 314 294 269 259 244 249 244 244 247 237 233 224 206 198 190 193 193 192 190 189 188 178 155 124 113 112 157 175 176 179 169 166
229 258 176 179 199 185 234 219 211 231 272 281 239 287 281 259 278 265 260 252 249 242 229 217 208 203 203 206 196 191 188 188 186 178 173 169 178 191 198 189 188 184 173 169
232 198 181 207 212 180 203 138 165 205 215 279 226 243 281 293 274 268 263 260 255 243 227 221 212 209 208 201 189 186 181 187 187 184 184 181 185 193 177 165 171 179 174 172
241 227 200 201 158 162 139 85 64 58 109 260 221 205 274 241 237 263 280 284 275 266 243 229 211 174 184 175 170 171 175 191 189 186 186 186 187 184 174 183 187 187 181 180
271 254 229 142 111 110 134 115 47 340 267 249 195 213 251 251 245 248 268 282 282 269 244 229 211 189 191 187 180 176 178 194 194 189 193 194 193 190 193 195 193 187 190 197
183 247 213 189 175 173 193 165 172 203 228 269 219 233 251 259 267 259 255 271 295 285 255 242 228 211 208 206 192 183 186 196 194 190 198 196 193 193 197 193 191 196 202 202
183 233 287 188 190 150 161 203 176 143 148 265 255 267 288 275 283 293 321 354 322 297 289 281 282 246 225 221 209 197 192 196 196 192 192 192 191 191 194 191 192 196 203 194
160 214 266 251 119 277 172 153 133 160 192 245 264 252 247 262 270 303 329 310 300 312 321 318 301 284 265 242 225 195 190 198 201 190 193 194 190 191 190 183 190 198 199 193
156 168 265 191 197 191 159 171 177 175 189 198 252 259 227 225 227 239 258 268 261 269 284 289 295 298 296 312 187 202 194 193 203 197 195 192 192 187 185 193 201 200 197 196
169 147 220 237 243 198 194 193 170 182 224 214 239 264 272 229 222 222 259 279 276 269 279 282 287 307 328 328 328 237 220 215 222 205 194 195 193 186 190 200 204 196 199 203
153 148 155 319 305 221 220 213 197 174 165 199 219 260 291 348 315 277 269 283 294 301 309 310 307 295 285 279 279 271 259 246 236 199 194 196 197 197 204 205 205 201 200 204
154 174 195 209 218 187 208 209 192 180 209 229 233 253 272 278 289 292 286 276 270 267 265 265 262 268 268 258 254 267 287 279 248 208 199 203 207 206 209 206 203 205 202 202
155 207 225 250 260 208 220 216 199 208 215 222 244 247 259 257 260 266 269 272 272 267 259 257 253 251 258 265 273 271 281 294 241 213 213 219 216 205 201 203 207 205 206 209
161 198 204 259 260 246 252 236 218 225 227 236 255 262 259 257 253 262 263 255 259 261 256 253 256 249 250 251 258 268 270 262 205 207 232 230 200 192 202 209 207 207 211 208
168 158 180 246 286 305 254 221 210 212 211 204 234 250 263 272 265 257 261 250 255 262 260 259 250 248 246 247 236 237 249 229 191 223 241 233 200 198 212 209 200 208 215 207
170 172 191 197 148 238 247 211 206 217 236 228 239 256 254 254 265 266 257 250 265 271 268 265 257 259 259 258 254 233 192 178 188 218 238 239 229 223 218 202 211 223 215 217
180 166 168 181 228 269 282 231 184 203 250 230 235 253 262 275 318 291 275 244 252 263 262 260 259 263 264 250 229 177 159 155 179 232 246 244 229 215 208 219 233 232 221 229
151 157 165 180 210 242 254 238 207 166 264 237 220 232 243 180 263 268 310 311 298 312 333 334 347 14 297 252 154 156 187 208 253 266 269 267 244 225 220 229 237 245 240 238
162 179 198 205 230 256 255 225 133 183 252 259 213 218 213 205 228 256 310 330 332 342 355 15 36 18 296 199 121 193 257 273 291 306 290 272 255 242 233 239 242 234 233 240
178 180 195 187 219 247 201 149 185 223 275 261 224 217 212 225 248 275 300 314 334 345 7 21 7 337 332 68 146 266 276 300 327 313 294 284 276 263 236 226 249 233 212 225
202 195 190 197 218 237 174 195 214 192 241 259 246 234 197 224 252 271 283 292 305 327 351 358 345 329 334 360 210 264 289 317 319 309 303 298 294 280 259 230 233 228 209 218
240 210 189 230 248 241 232 247 250 231 235 254 243 218 181 216 243 258 272 286 295 311 334 350 347 326 324 335 357 312 317 317 287 273 287 294 287 299 307 271 239 220 207 217
203 175 194 237 252 266 256 234 231 232 241 267 272 226 200 200 235 243 250 260 262 288 315 329 309 297 302 316 327 335 334 333 303 289 281 276 267 266 282 285 267 250 234 221
190 186 192 223 213 205 231 224 209 210 231 231 230 260 241 203 229 243 247 254 256 276 296 307 304 297 299 302 299 309 308 289 276 290 292 286 281 280 277 290 305 294 277 277